Date,TemperatureHighF,TemperatureAvgF,TemperatureLowF,DewpointHighF,DewpointAvgF,DewpointLowF,HumidityHigh,HumidityAvg,HumidityLow,PressureMaxIn,PressureMinIn,WindSpeedMaxMPH,WindSpeedAvgMPH,GustSpeedMaxMPH,PrecipitationSumIn
2013-1-1,55.2,41.2,32.8,37.4,33.0,29.5,89,74,46,30.32,30.21,20,2,21,0.00
2013-1-2,56.4,40.1,29.8,39.4,32.4,26.9,89,76,45,30.28,30.16,9,0,11,0.01
2013-1-3,55.4,39.7,29.4,40.5,33.3,26.3,89,79,53,30.29,30.19,5,0,5,0.01
2013-1-4,55.7,41.8,32.4,40.3,34.5,29.3,89,77,50,30.32,30.20,7,0,8,0.00
2013-1-5,50.0,42.2,34.5,43.0,37.9,31.6,89,85,75,30.29,30.11,13,1,15,0.35
2013-1-6,66.6,45.4,38.0,55.7,41.3,35.1,89,86,51,30.20,30.10,16,1,16,0.19
2013-1-7,54.2,43.6,35.8,44.9,39.1,32.9,90,84,67,30.26,30.16,9,1,9,0.00
2013-1-8,57.2,44.1,35.8,47.1,39.8,32.9,90,85,67,30.27,30.15,5,0,5,0.00
2013-1-9,51.1,43.9,38.3,47.7,39.1,32.1,94,83,64,30.18,29.92,21,2,21,0.00
2013-1-10,54.2,41.2,31.4,38.3,32.6,28.5,89,73,47,30.16,30.03,11,1,12,0.00
2013-1-11,51.6,38.7,29.3,37.7,32.1,26.2,89,78,56,30.25,30.14,11,1,11,0.00
2013-1-12,50.9,39.9,32.0,32.9,28.0,25.0,82,64,37,30.26,30.16,17,2,17,0.01
2013-1-13,48.6,37.9,26.7,27.6,24.1,20.2,82,59,40,30.28,30.19,20,3,21,0.00
2013-1-14,52.8,41.0,33.2,28.2,23.6,19.8,74,51,29,30.43,30.25,24,4,25,0.00
2013-1-15,53.7,38.9,28.8,35.9,30.1,25.0,87,72,44,30.52,30.40,1,0,1,0.00
2013-1-16,58.8,40.8,29.0,38.6,32.4,25.8,88,74,42,30.46,30.30,1,0,2,0.00
2013-1-17,60.9,41.8,29.3,40.8,33.8,26.2,89,75,46,30.31,30.18,3,0,3,0.00
2013-1-18,63.2,45.2,35.5,40.2,34.6,29.6,92,70,34,30.27,30.16,14,2,14,0.00
2013-1-19,65.1,44.8,30.4,40.5,32.5,26.4,89,66,29,30.30,30.18,12,1,13,0.00
2013-1-20,65.8,45.6,32.2,34.2,31.4,27.9,85,62,28,30.26,30.14,15,1,16,0.00
2013-1-21,63.9,45.6,33.9,42.2,34.8,29.8,88,69,38,30.21,30.12,7,0,8,0.00
2013-1-22,63.8,47.3,35.4,41.4,36.7,31.6,87,69,40,30.17,30.04,9,0,9,0.00
2013-1-23,54.7,48.1,44.4,48.3,42.2,37.7,92,80,64,30.13,30.00,17,2,20,0.18
2013-1-24,59.1,52.6,47.3,53.3,48.9,43.9,89,87,80,30.20,30.08,23,-7,23,0.02
2013-1-25,69.1,57.0,49.2,56.4,51.3,45.8,92,82,62,30.20,30.03,6,0,6,0.00
2013-1-26,67.2,53.8,45.1,52.2,43.5,37.6,92,71,37,30.03,29.92,15,1,18,0.16
2013-1-27,59.1,46.2,35.7,41.9,36.8,32.8,89,72,40,30.16,30.02,19,1,19,0.02
2013-1-28,62.2,47.5,34.9,40.4,36.4,31.4,88,67,43,30.26,30.14,15,1,18,0.00
2013-1-29,64.1,48.5,38.4,42.3,38.5,34.7,88,71,40,30.36,30.23,15,0,17,0.00
2013-1-30,67.2,51.9,41.7,45.8,41.6,37.2,87,69,42,30.36,30.26,14,1,15,0.00
2013-1-31,67.7,49.8,37.3,49.1,41.6,34.3,89,75,45,30.32,30.20,2,0,2,0.00